FW2617 Weather Reports


time (UTC)temp
C
wind
direction
speed
KPH
gust
KPH
rain 1hr
cm
rain 24hr
cm
rain mn
cm
humidity
%
barometer
mb
20260903151803 28 171 9.7 20.9 0.00 0.00 0.00 78 1010.3
20260903150903 28 167 9.7 24.1 0.00 0.00 0.00 77 1010.3
20260903150003 29 170 9.7 25.7 0.00 0.00 0.00 77 1010.3
20260903145404 28 170 8.0 25.7 0.00 0.00 0.00 78 1010.2
20260903144503 28 164 8.0 19.3 0.00 0.00 0.00 79 1010.2
20260903143604 28 169 9.7 22.5 0.00 0.00 0.00 81 1010.2
20260903142703 27 157 8.0 19.3 0.00 0.00 0.00 81 1010.1
20260903141803 27 155 8.0 19.3 0.00 0.00 0.00 82 1010.2
20260903140903 27 160 6.4 17.7 0.00 0.00 0.00 83 1010.2
20260903140003 26 152 6.4 14.5 0.00 0.00 0.00 84 1010.2
20260903135403 26 151 6.4 14.5 0.00 0.00 0.00 85 1010.3
20260903134503 26 153 4.8 11.3 0.00 0.00 0.00 86 1010.1
20260903133604 25 154 3.2 11.3 0.00 0.00 0.00 87 1010.1
20260903132703 25 142 3.2 6.4 0.00 0.00 0.00 87 1010.1
20260903131824 25 142 1.6 6.4 0.00 0.00 0.00 88 1010.2
20260903130904 24 148 3.2 6.4 0.00 0.00 0.00 88 1010.2
20260903130003 24 145 3.2 9.7 0.00 0.00 0.00 88 1010.1
20260903125404 24 144 3.2 9.7 0.00 0.00 0.00 89 1010.1
20260903124503 24 150 1.6 4.8 0.00 0.00 0.00 88 1010.0
20260903123604 23 154 0.0 3.2 0.00 0.00 0.00 88 1010.0
20260903122703 23 0 0.0 0.0 0.00 0.00 0.00 88 1009.9
20260903121804 23 162 0.0 3.2 0.00 0.00 0.00 88 1009.9
20260903120903 23 138 0.0 3.2 0.00 0.00 0.00 88 1009.8
20260903120003 23 0 0.0 0.0 0.00 0.00 0.00 88 1009.8
20260903115404 23 67 0.0 1.6 0.00 0.00 0.00 88 1009.9
20260903114503 23 84 0.0 1.6 0.00 0.00 0.00 87 1009.8
20260903113603 23 151 0.0 3.2 0.00 0.00 0.00 87 1009.8
20260903112703 24 151 1.6 3.2 0.00 0.00 0.00 87 1009.6
20260903111803 24 154 1.6 6.4 0.00 0.00 0.00 87 1009.7
20260903110904 24 156 1.6 6.4 0.00 0.00 0.00 87 1009.7
20260903110003 24 128 0.0 4.8 0.00 0.00 0.00 87 1009.6
20260903105403 24 149 0.0 6.4 0.00 0.00 0.00 87 1009.6
20260903104504 24 151 0.0 6.4 0.00 0.00 0.00 86 1009.5
20260903103603 24 142 1.6 6.4 0.00 0.00 0.00 86 1009.6
20260903102724 24 135 0.0 4.8 0.00 0.00 0.00 86 1009.6
20260903101824 24 120 1.6 6.4 0.00 0.00 0.00 86 1009.6
20260903100903 24 140 0.0 3.2 0.00 0.00 0.00 86 1009.6
20260903100024 24 0 0.0 0.0 0.00 0.00 0.00 85 1009.5
20260903095424 24 0 0.0 0.0 0.00 0.00 0.00 84 1009.6
20260903094503 24 0 0.0 0.0 0.00 0.00 0.00 84 1009.6
20260903093624 24 0 0.0 0.0 0.00 0.00 0.00 84 1009.6
20260903092703 25 161 0.0 3.2 0.00 0.00 0.00 84 1009.7
20260903091803 25 161 0.0 3.2 0.00 0.00 0.00 84 1009.6
20260903090903 25 166 0.0 3.2 0.00 0.00 0.00 83 1009.6
20260903090003 25 0 0.0 0.0 0.00 0.00 0.00 83 1009.5
20260903085403 25 0 0.0 0.0 0.00 0.00 0.00 83 1009.4
20260903084503 25 0 0.0 0.0 0.00 0.00 0.00 83 1009.4
20260903083603 25 0 0.0 0.0 0.00 0.00 0.00 83 1009.3
20260903082703 25 0 0.0 0.0 0.00 0.00 0.00 83 1009.3
20260903081803 25 0 0.0 0.0 0.00 0.00 0.00 82 1009.4
20260903080904 25 0 0.0 0.0 0.00 0.00 0.00 81 1009.6
20260903080003 25 0 0.0 0.0 0.00 0.00 0.00 81 1009.6
20260903075403 25 0 0.0 0.0 0.00 0.00 0.00 80 1009.6
20260903074503 25 0 0.0 0.0 0.00 0.00 0.00 80 1009.5
20260903073604 25 0 0.0 0.0 0.00 0.00 0.00 79 1009.6
20260903072703 25 0 0.0 0.0 0.00 0.00 0.00 79 1009.6
20260903071803 25 0 0.0 0.0 0.00 0.00 0.00 80 1009.7
20260903070903 25 0 0.0 0.0 0.00 0.00 0.00 79 1009.7
20260903070004 25 189 0.0 4.8 0.00 0.00 0.00 79 1009.8
20260903065424 25 188 0.0 3.2 0.00 0.00 0.00 79 1009.8
20260903064503 25 178 0.0 3.2 0.00 0.00 0.00 79 1009.7
20260903063624 25 176 0.0 6.4 0.00 0.00 0.00 78 1009.8
20260903062703 26 165 1.6 8.0 0.00 0.00 0.00 78 1009.9
20260903061803 26 149 1.6 6.4 0.00 0.00 0.00 77 1010.0
20260903060924 26 146 3.2 9.7 0.00 0.00 0.00 77 1010.0
20260903060003 26 153 3.2 11.3 0.00 0.00 0.00 76 1010.0
20260903055403 26 150 3.2 9.7 0.00 0.00 0.00 76 1010.1
20260903054524 26 142 1.6 6.4 0.00 0.00 0.00 75 1010.1
20260903053603 26 0 0.0 0.0 0.00 0.00 0.00 74 1010.3
20260903052704 26 0 0.0 0.0 0.00 0.00 0.00 73 1010.3
20260903051824 26 0 0.0 0.0 0.00 0.00 0.00 72 1010.2
20260903050903 27 140 1.6 6.4 0.00 0.00 0.00 72 1010.2
20260903050004 27 107 0.0 3.2 0.00 0.00 0.00 71 1010.2
20260903045403 27 131 1.6 9.7 0.00 0.00 0.00 71 1010.2
20260903044524 27 129 3.2 9.7 0.00 0.00 0.00 71 1010.1
20260903043603 27 132 1.6 9.7 0.00 0.00 0.00 70 1010.1
20260903042703 27 134 3.2 9.7 0.00 0.00 0.00 70 1010.1
20260903041804 27 142 1.6 6.4 0.00 0.00 0.00 69 1010.1
20260903040904 28 145 1.6 6.4 0.00 0.00 0.00 69 1010.0
20260903040003 28 132 1.6 6.4 0.00 0.00 0.00 68 1009.9
20260903035403 28 133 3.2 8.0 0.00 0.00 0.00 68 1010.0
20260903034504 28 141 0.0 3.2 0.00 0.00 0.00 68 1010.0
20260903033603 28 142 1.6 8.0 0.00 0.00 0.00 68 1010.0
20260903032703 28 147 3.2 9.7 0.00 0.00 0.00 67 1009.9
20260903031803 29 156 4.8 11.3 0.00 0.00 0.00 66 1009.9
20260903030903 29 157 3.2 9.7 0.00 0.00 0.00 65 1009.9
20260903030004 30 146 3.2 9.7 0.00 0.00 0.00 65 1009.8
20260903025403 30 148 3.2 11.3 0.00 0.00 0.00 64 1009.6
20260903024503 30 144 3.2 11.3 0.00 0.00 0.00 63 1009.5
20260903023603 30 143 4.8 14.5 0.00 0.00 0.00 63 1009.3
20260903022703 30 145 4.8 9.7 0.00 0.00 0.00 62 1009.2
20260903021803 30 143 4.8 12.9 0.00 0.00 0.00 61 1009.0
20260903020903 31 135 3.2 17.7 0.00 0.00 0.00 60 1008.9
20260903020024 31 136 3.2 11.3 0.00 0.00 0.00 59 1008.8
20260903015403 31 133 3.2 12.9 0.00 0.00 0.00 59 1008.7
20260903014503 31 122 3.2 9.7 0.00 0.00 0.00 58 1008.5
20260903013603 31 135 3.2 9.7 0.00 0.00 0.00 58 1008.4
20260903012703 31 134 3.2 9.7 0.00 0.00 0.00 57 1008.5
20260903011803 31 138 3.2 8.0 0.00 0.00 0.00 56 1008.4
20260903010903 32 139 4.8 12.9 0.00 0.00 0.00 55 1008.3
20260903010003 32 138 4.8 14.5 0.00 0.00 0.00 54 1008.2
20260903005403 32 137 4.8 19.3 0.00 0.00 0.00 53 1008.1
20260903004504 32 125 4.8 16.1 0.00 0.00 0.00 51 1008.1
20260903003604 33 125 4.8 11.3 0.00 0.00 0.00 49 1008.2
20260903002704 33 119 3.2 9.7 0.00 0.00 0.00 47 1008.1
20260903001804 34 102 4.8 12.9 0.00 0.00 0.00 46 1008.0
20260903000904 34 100 4.8 9.7 0.00 0.00 0.00 45 1007.9
20260903000004 35 125 3.2 12.9 0.00 0.00 0.00 46 1008.0
20260902235404 35 121 4.8 12.9 0.00 0.00 0.00 45 1007.9
20260902234504 36 121 6.4 12.9 0.00 0.00 0.00 44 1007.9
20260902233604 37 103 4.8 14.5 0.00 0.00 0.00 41 1007.8
20260902232704 37 60 6.4 16.1 0.00 0.00 0.00 38 1007.7
20260902231805 38 61 3.2 12.9 0.00 0.00 0.00 37 1007.6
20260902230925 38 58 4.8 14.5 0.00 0.00 0.00 36 1007.7
20260902230004 38 49 4.8 14.5 0.00 0.00 0.00 35 1007.8
20260902225404 38 58 8.0 19.3 0.00 0.00 0.00 36 1007.7
20260902224504 38 51 8.0 22.5 0.00 0.00 0.00 34 1007.6
20260902223625 38 8 8.0 17.7 0.00 0.00 0.00 36 1007.7
20260902222705 38 37 8.0 17.7 0.00 0.00 0.00 36 1007.7
20260902221805 38 27 6.4 19.3 0.00 0.00 0.00 36 1007.8
20260902220925 38 33 8.0 25.7 0.00 0.00 0.00 36 1007.8
20260902220004 38 22 8.0 25.7 0.00 0.00 0.00 36 1007.8
20260902215405 38 55 6.4 19.3 0.00 0.00 0.00 36 1008.0
20260902214505 38 50 8.0 20.9 0.00 0.00 0.00 36 1008.0
20260902213604 38 39 8.0 20.9 0.00 0.00 0.00 36 1008.0
20260902212704 38 23 9.7 19.3 0.00 0.00 0.00 36 1008.2
20260902211804 38 49 8.0 19.3 0.00 0.00 0.00 36 1008.3
20260902210904 38 45 6.4 16.1 0.00 0.00 0.00 37 1008.2
20260902210004 38 40 8.0 19.3 0.00 0.00 0.00 36 1008.4
20260902205404 38 47 9.7 20.9 0.00 0.00 0.00 35 1008.5
20260902204505 39 52 4.8 16.1 0.00 0.00 0.00 35 1008.5
20260902203604 38 37 6.4 17.7 0.00 0.00 0.00 38 1008.6
20260902202704 38 33 9.7 22.5 0.00 0.00 0.00 38 1008.7
20260902201804 38 16 8.0 17.7 0.00 0.00 0.00 38 1008.9
20260902200904 38 13 8.0 17.7 0.00 0.00 0.00 38 1009.1
20260902200025 38 15 8.0 17.7 0.00 0.00 0.00 38 1009.1
20260902195404 38 25 8.0 17.7 0.00 0.00 0.00 39 1009.2
20260902194504 38 24 8.0 17.7 0.00 0.00 0.00 38 1009.4
20260902193604 38 18 9.7 20.9 0.00 0.00 0.00 38 1009.5
20260902192704 38 19 8.0 17.7 0.00 0.00 0.00 39 1009.7
20260902191805 38 51 6.4 20.9 0.00 0.00 0.00 39 1009.8
20260902190904 37 42 8.0 16.1 0.00 0.00 0.00 40 1010.0
20260902190004 38 48 8.0 16.1 0.00 0.00 0.00 39 1010.2
20260902185404 38 40 6.4 16.1 0.00 0.00 0.00 39 1010.2
20260902184504 37 37 6.4 17.7 0.00 0.00 0.00 40 1010.3
20260902183604 37 33 6.4 16.1 0.00 0.00 0.00 40 1010.5
20260902182705 37 50 6.4 16.1 0.00 0.00 0.00 41 1010.7
20260902181804 37 3 8.0 20.9 0.00 0.00 0.00 41 1010.8
20260902180904 37 41 4.8 19.3 0.00 0.00 0.00 42 1011.0
20260902180006 37 65 3.2 11.3 0.00 0.00 0.00 44 1011.2
20260902175404 36 47 4.8 17.7 0.00 0.00 0.00 44 1011.3
20260902174504 36 48 3.2 17.7 0.00 0.00 0.00 44 1011.4
20260902173604 36 8 4.8 12.9 0.00 0.00 0.00 45 1011.6
20260902172704 36 52 4.8 16.1 0.00 0.00 0.00 46 1011.8
20260902171804 35 53 4.8 12.9 0.00 0.00 0.00 47 1011.9
20260902170925 35 155 3.2 6.4 0.00 0.00 0.00 47 1012.1
20260902170004 35 42 3.2 12.9 0.00 0.00 0.00 48 1012.1
20260902165404 34 39 4.8 11.3 0.00 0.00 0.00 49 1012.3
20260902164504 34 54 1.6 11.3 0.00 0.00 0.00 50 1012.4
20260902163604 33 69 3.2 8.0 0.00 0.00 0.00 51 1012.4
20260902162704 33 80 3.2 8.0 0.00 0.00 0.00 53 1012.4
20260902161804 32 5 4.8 8.0 0.00 0.00 0.00 56 1012.5
20260902160904 32 40 3.2 8.0 0.00 0.00 0.00 56 1012.7
20260902160007 31 101 1.6 4.8 0.00 0.00 0.00 60 1012.7
20260902155404 31 66 1.6 4.8 0.00 0.00 0.00 62 1012.6
20260902154504 30 40 1.6 8.0 0.00 0.00 0.00 63 1012.7
20260902153605 30 148 1.6 6.4 0.00 0.00 0.00 64 1012.6
20260902152705 30 62 1.6 6.4 0.00 0.00 0.00 65 1012.6